Hourly Weather Kosincy

Today, 18 September, Friday

Time Temperature Precipitation Wind Pressure Humidity
00:00 +3°C° 0 mm 0 mps 746 mmHg 90%
01:00 +3°C° 0 mm 0 mps 746 mmHg 89%
02:00 +4°C° 0 mm 1 mps 745 mmHg 87%
03:00 +5°C° 0 mm 1 mps 745 mmHg 86%
04:00 +5°C° 0 mm 1 mps 745 mmHg 84%
05:00 +4°C° 0.7 mm 2 mps 744 mmHg 88%
06:00 +4°C° 0.7 mm 2 mps 743 mmHg 92%
07:00 +4°C° 0.7 mm 2 mps 743 mmHg 96%
08:00 +4°C° 1.4 mm 2 mps 743 mmHg 96%
09:00 +3°C° 1.4 mm 3 mps 742 mmHg 97%
10:00 +3°C° 1.4 mm 3 mps 742 mmHg 97%
11:00 +3°C° 0.4 mm 3 mps 742 mmHg 97%
12:00 +5°C° 0.4 mm 2 mps 742 mmHg 97%
13:00 +5°C° 0.4 mm 2 mps 741 mmHg 96%
14:00 +5°C° 0.1 mm 2 mps 741 mmHg 97%
15:00 +5°C° 0.1 mm 2 mps 741 mmHg 97%
16:00 +4°C° 0.1 mm 3 mps 740 mmHg 97%
17:00 +6°C° 0.2 mm 2 mps 740 mmHg 97%
18:00 +6°C° 0.2 mm 2 mps 739 mmHg 98%
19:00 +6°C° 0.2 mm 2 mps 739 mmHg 98%
20:00 +6°C° 0 mm 2 mps 739 mmHg 98%
21:00 +6°C° 0 mm 2 mps 738 mmHg 97%
22:00 +7°C° 0 mm 2 mps 738 mmHg 97%
23:00 +7°C° 0 mm 2 mps 738 mmHg 96%

Tomorrow, 19 September, Saturday

Time Temperature Precipitation Wind Pressure Humidity
00:00 +8°C° 0 mm 2 mps 737 mmHg 96%
01:00 +8°C° 0 mm 2 mps 737 mmHg 95%
02:00 +8°C° 0 mm 3 mps 737 mmHg 95%
03:00 +8°C° 0 mm 3 mps 737 mmHg 95%
04:00 +8°C° 0 mm 3 mps 736 mmHg 95%
05:00 +8°C° 0 mm 3 mps 736 mmHg 96%
06:00 +8°C° 0 mm 3 mps 736 mmHg 97%
07:00 +7°C° 0 mm 3 mps 735 mmHg 97%
08:00 +7°C° 0 mm 4 mps 735 mmHg 94%
09:00 +8°C° 0 mm 4 mps 735 mmHg 91%
10:00 +10°C° 0 mm 4 mps 734 mmHg 87%
11:00 +10°C° 0.2 mm 4 mps 734 mmHg 87%
12:00 +9°C° 0.2 mm 5 mps 734 mmHg 86%
13:00 +9°C° 0.2 mm 5 mps 733 mmHg 85%
14:00 +9°C° 0.2 mm 5 mps 733 mmHg 85%
15:00 +9°C° 0.2 mm 5 mps 733 mmHg 86%
16:00 +10°C° 0.2 mm 4 mps 733 mmHg 86%
17:00 +8°C° 0.5 mm 4 mps 733 mmHg 89%
18:00 +8°C° 0.5 mm 3 mps 732 mmHg 92%
19:00 +8°C° 0.5 mm 2 mps 732 mmHg 96%
20:00 +7°C° 0.7 mm 2 mps 733 mmHg 96%
21:00 +7°C° 0.7 mm 2 mps 733 mmHg 95%
22:00 +7°C° 0.7 mm 1 mps 733 mmHg 95%
23:00 +6°C° 0 mm 2 mps 733 mmHg 95%

Day after tomorrow, 20 September, Sunday

Time Temperature Precipitation Wind Pressure Humidity
00:00 +5°C° 0 mm 2 mps 733 mmHg 95%
01:00 +5°C° 0 mm 2 mps 733 mmHg 95%
02:00 +5°C° 0 mm 2 mps 733 mmHg 95%
03:00 +4°C° 0 mm 2 mps 733 mmHg 95%
04:00 +4°C° 0 mm 2 mps 733 mmHg 95%
05:00 +2°C° 0 mm 3 mps 733 mmHg 95%
06:00 +2°C° 0 mm 3 mps 733 mmHg 95%
07:00 +1°C° 0 mm 3 mps 733 mmHg 95%
08:00 +1°C° 0 mm 3 mps 733 mmHg 93%
09:00 +2°C° 0 mm 3 mps 733 mmHg 91%
10:00 +1°C° 0 mm 4 mps 733 mmHg 89%
11:00 +3°C° 0 mm 4 mps 732 mmHg 84%
12:00 +4°C° 0 mm 4 mps 732 mmHg 78%
13:00 +5°C° 0 mm 4 mps 732 mmHg 73%
14:00 +5°C° 0 mm 4 mps 732 mmHg 71%
15:00 +5°C° 0 mm 4 mps 733 mmHg 70%
16:00 +6°C° 0 mm 4 mps 733 mmHg 69%
17:00 +5°C° 0 mm 4 mps 733 mmHg 73%
18:00 +4°C° 0 mm 3 mps 733 mmHg 78%
19:00 +3°C° 0 mm 3 mps 733 mmHg 82%
20:00 +2°C° 0 mm 3 mps 734 mmHg 84%
21:00 +2°C° 0 mm 3 mps 734 mmHg 86%
22:00 +1°C° 0 mm 3 mps 734 mmHg 88%
23:00 +1°C° 0 mm 3 mps 734 mmHg 90%

21 September, Monday

Time Temperature Precipitation Wind Pressure Humidity
00:00 0°C° 0 mm 3 mps 734 mmHg 92%
01:00 0°C° 0 mm 3 mps 734 mmHg 94%
02:00 0°C° 0 mm 3 mps 734 mmHg 94%
03:00 -1°C° 0 mm 3 mps 734 mmHg 94%
04:00 -1°C° 0 mm 3 mps 735 mmHg 93%
05:00 -2°C° 0 mm 4 mps 734 mmHg 93%
06:00 -2°C° 0 mm 4 mps 734 mmHg 93%
07:00 -1°C° 0 mm 4 mps 734 mmHg 93%
08:00 -1°C° 0 mm 4 mps 734 mmHg 87%
09:00 0°C° 0 mm 4 mps 734 mmHg 82%
10:00 +1°C° 0 mm 5 mps 734 mmHg 77%
11:00 +2°C° 0 mm 5 mps 734 mmHg 71%
12:00 +3°C° 0 mm 5 mps 734 mmHg 66%
13:00 +6°C° 0 mm 5 mps 734 mmHg 61%
14:00 +5°C° 0.1 mm 4 mps 734 mmHg 63%
15:00 +5°C° 0.1 mm 4 mps 734 mmHg 65%
16:00 +5°C° 0.1 mm 4 mps 734 mmHg 67%
17:00 +4°C° 0 mm 3 mps 734 mmHg 75%
18:00 +3°C° 0 mm 3 mps 734 mmHg 83%
19:00 +3°C° 0 mm 2 mps 734 mmHg 91%
20:00 +2°C° 0 mm 2 mps 734 mmHg 93%
21:00 +2°C° 0 mm 2 mps 734 mmHg 95%
22:00 +3°C° 0 mm 1 mps 734 mmHg 98%
23:00 +2°C° 0 mm 1 mps 734 mmHg 98%

22 September, Tuesday

Time Temperature Precipitation Wind Pressure Humidity
00:00 +1°C° 0 mm 2 mps 735 mmHg 98%
01:00 -1°C° 0 mm 2 mps 735 mmHg 98%
02:00 -1°C° 0 mm 2 mps 736 mmHg 97%
03:00 -1°C° 0 mm 2 mps 736 mmHg 97%
04:00 -1°C° 0 mm 2 mps 737 mmHg 97%
05:00 -1°C° 0 mm 3 mps 738 mmHg 96%
06:00 -1°C° 0 mm 3 mps 738 mmHg 95%
07:00 0°C° 0 mm 3 mps 739 mmHg 94%
08:00 -1°C° 0 mm 4 mps 740 mmHg 90%
09:00 0°C° 0 mm 4 mps 740 mmHg 85%
10:00 +1°C° 0 mm 4 mps 741 mmHg 81%
11:00 +4°C° 0 mm 4 mps 742 mmHg 73%
12:00 +5°C° 0 mm 4 mps 742 mmHg 65%
13:00 +7°C° 0 mm 4 mps 743 mmHg 57%
14:00 +7°C° 0 mm 4 mps 743 mmHg 58%
15:00 +7°C° 0 mm 4 mps 744 mmHg 58%
16:00 +8°C° 0 mm 3 mps 744 mmHg 59%
17:00 +7°C° 0 mm 3 mps 744 mmHg 68%
18:00 +4°C° 0 mm 3 mps 745 mmHg 76%
19:00 +4°C° 0 mm 2 mps 745 mmHg 85%
20:00 +3°C° 0 mm 2 mps 745 mmHg 87%
21:00 +3°C° 0 mm 2 mps 745 mmHg 89%
22:00 +3°C° 0 mm 2 mps 745 mmHg 91%
23:00 +3°C° 0 mm 2 mps 745 mmHg 90%

23 September, Wednesday

Time Temperature Precipitation Wind Pressure Humidity
00:00 +4°C° 0 mm 2 mps 745 mmHg 88%
01:00 +3°C° 0 mm 3 mps 745 mmHg 87%
02:00 +4°C° 0.4 mm 3 mps 745 mmHg 90%
03:00 +4°C° 0.4 mm 3 mps 744 mmHg 93%
04:00 +5°C° 0.4 mm 3 mps 744 mmHg 96%
05:00 +5°C° 0.4 mm 3 mps 744 mmHg 96%
06:00 +5°C° 0.4 mm 3 mps 744 mmHg 96%
07:00 +5°C° 0.4 mm 3 mps 744 mmHg 97%
08:00 +7°C° 0.2 mm 3 mps 744 mmHg 97%
09:00 +7°C° 0.2 mm 3 mps 744 mmHg 97%
10:00 +8°C° 0.2 mm 3 mps 744 mmHg 97%
11:00 +9°C° 0 mm 3 mps 745 mmHg 94%
12:00 +10°C° 0 mm 3 mps 745 mmHg 92%
13:00 +11°C° 0 mm 3 mps 745 mmHg 89%
14:00 +12°C° 0 mm 3 mps 745 mmHg 89%
15:00 +12°C° 0 mm 3 mps 745 mmHg 89%
16:00 +12°C° 0 mm 3 mps 745 mmHg 88%
17:00 +11°C° 0 mm 3 mps 745 mmHg 91%
18:00 +10°C° 0 mm 3 mps 745 mmHg 93%
19:00 +9°C° 0 mm 3 mps 745 mmHg 96%
20:00 +9°C° 0 mm 3 mps 745 mmHg 96%
21:00 +9°C° 0 mm 3 mps 745 mmHg 96%
22:00 +9°C° 0 mm 3 mps 745 mmHg 96%
23:00 +9°C° 0 mm 3 mps 745 mmHg 96%
Show more